ETD67 OMAA-OMAA

Flight info

Callsign ETD67
Flight time 0h 8m
Altitude 4000
Route SETRU
Aircraft A35K/H-SDE2E3GHIJ3J4J5LM1ORWXY/LB1D1

Departure

Time 2026-05-03 22:27
Airport Zayed International Airport (OMAA)

Arrival

Time 2026-05-03 22:35
Airport Zayed International Airport (OMAA)
Time Latitude Longitude Altitude Speed Heading
2026-05-03 22:10 24.42411 54.65784 82 ft 0 kts 38°
2026-05-03 22:10 24.42418 54.65790 82 ft 6 kts 38°
2026-05-03 22:11 24.42411 54.65784 82 ft 0 kts 38°
2026-05-03 22:17 24.42410 54.65784 82 ft 0 kts 38°
2026-05-03 22:19 24.42410 54.65783 82 ft 0 kts 38°
2026-05-03 22:23 24.42411 54.65784 82 ft 2 kts 38°
2026-05-03 22:23 24.42413 54.65792 82 ft 1 kts 72°
2026-05-03 22:23 24.42410 54.65804 88 ft 9 kts 101°
2026-05-03 22:24 24.42378 54.66005 88 ft 44 kts 112°
2026-05-03 22:24 24.42216 54.66251 88 ft 27 kts 128°
2026-05-03 22:24 24.42056 54.66481 87 ft 5 kts 127°
2026-05-03 22:24 24.42047 54.66496 86 ft 5 kts 119°
2026-05-03 22:25 24.42054 54.66585 86 ft 20 kts 63°
2026-05-03 22:25 24.42203 54.66648 85 ft 29 kts 333°
2026-05-03 22:25 24.42357 54.66456 87 ft 27 kts 306°
2026-05-03 22:25 24.42407 54.66382 88 ft 1 kts 307°
2026-05-03 22:26 24.42420 54.66363 88 ft 5 kts 306°
2026-05-03 22:26 24.42448 54.66322 89 ft 10 kts 307°
2026-05-03 22:26 24.42667 54.66016 89 ft 98 kts 308°
2026-05-03 22:26 24.43263 54.65178 136 ft 173 kts 310°
2026-05-03 22:27 24.44062 54.64030 691 ft 206 kts 309°
2026-05-03 22:27 24.44991 54.62654 1149 ft 247 kts 307°
2026-05-03 22:27 24.46072 54.60970 1521 ft 293 kts 306°
2026-05-03 22:27 24.47305 54.58953 1318 ft 339 kts 301°
2026-05-03 22:28 24.47713 54.56556 2771 ft 318 kts 265°
2026-05-03 22:28 24.46904 54.54346 3988 ft 319 kts 236°
2026-05-03 22:28 24.45184 54.52759 4031 ft 340 kts 210°
2026-05-03 22:28 24.42734 54.52156 3128 ft 380 kts 184°
2026-05-03 22:29 24.40019 54.52088 2672 ft 392 kts 180°
2026-05-03 22:29 24.37344 54.52647 2463 ft 393 kts 160°
2026-05-03 22:29 24.35024 54.53984 2457 ft 351 kts 141°
2026-05-03 22:29 24.33651 54.55894 2387 ft 299 kts 113°
2026-05-03 22:30 24.32877 54.57894 2097 ft 271 kts 108°
2026-05-03 22:30 24.32313 54.59734 2034 ft 238 kts 102°
2026-05-03 22:30 24.31946 54.61425 1868 ft 219 kts 98°
2026-05-03 22:30 24.31702 54.63007 1725 ft 202 kts 95°
2026-05-03 22:31 24.31731 54.64461 1468 ft 182 kts 70°
2026-05-03 22:31 24.32233 54.65657 1258 ft 165 kts 53°
2026-05-03 22:31 24.32832 54.66614 1209 ft 142 kts 52°
2026-05-03 22:31 24.33358 54.67447 1130 ft 127 kts 50°
2026-05-03 22:32 24.33951 54.68292 1000 ft 160 kts 46°
2026-05-03 22:32 24.34793 54.69280 924 ft 175 kts 39°
2026-05-03 22:32 24.35704 54.70019 940 ft 155 kts 28°
2026-05-03 22:32 24.36650 54.70476 910 ft 142 kts 15°
2026-05-03 22:33 24.37591 54.70749 886 ft 137 kts
2026-05-03 22:33 24.38506 54.70670 878 ft 133 kts 338°
2026-05-03 22:33 24.39264 54.70023 771 ft 144 kts 319°
2026-05-03 22:33 24.40015 54.69233 629 ft 154 kts 319°
2026-05-03 22:34 24.40801 54.68406 433 ft 156 kts 316°
2026-05-03 22:34 24.41519 54.67557 298 ft 147 kts 311°
2026-05-03 22:34 24.42165 54.66722 120 ft 140 kts 310°
2026-05-03 22:34 24.42722 54.65927 87 ft 120 kts 310°
2026-05-03 22:35 24.43022 54.65392 84 ft 26 kts 276°
2026-05-03 22:35 24.43009 54.65341 87 ft 0 kts 209°
2026-05-03 22:35 24.43002 54.65338 86 ft 4 kts 202°
2026-05-03 22:36 24.42968 54.65344 85 ft 8 kts 166°
2026-05-03 22:36 24.42892 54.65369 87 ft 15 kts 159°
2026-05-03 22:36 24.42773 54.65419 86 ft 21 kts 170°
2026-05-03 22:36 24.42684 54.65394 87 ft 12 kts 215°
2026-05-03 22:37 24.42612 54.65366 86 ft 7 kts 155°
2026-05-03 22:37 24.42512 54.65499 87 ft 37 kts 127°
2026-05-03 22:37 24.42471 54.65627 88 ft 19 kts 60°
2026-05-03 22:37 24.42511 54.65672 88 ft 0 kts 42°